Theta_e
303 304 304 304 305 305 305 305 305 304 303 307 306 309 302 300 297 305 309 312 309 303 295 297 292 292 294 297 295 296 295 295 297 295 297 294 296 295 294 293 293 294 293 293 293 293 292 294 294 297 297 297 299 299 300 299 297 299 297 297 297 307 292 291 293 296 295 297 298 299 297 296 295 296 298 297 295 296 295 293 294 290 291 289 288 285 290
303 304 304 304 304 305 305 305 305 304 303 304 307 306 301 301 300 302 308 313 309 299 289 289 289 293 295 295 294 296 296 295 294 294 296 295 295 294 295 295 295 295 296 295 291 295 288 294 294 295 298 296 300 300 301 301 299 300 296 295 301 290 295 294 289 288 291 292 295 295 297 296 295 295 297 296 297 297 299 297 298 289 291 291 288 283 291
303 303 304 304 304 304 305 305 305 304 303 305 306 302 301 302 304 303 305 309 306 295 295 294 291 292 293 293 291 293 294 296 296 296 294 296 295 295 295 295 296 295 296 295 296 296 294 295 296 297 297 297 299 299 302 302 302 303 301 303 301 293 291 291 285 283 281 281 282 285 288 292 295 293 293 293 294 296 294 289 291 286 291 293 288 288 293
303 303 303 303 304 304 305 305 304 304 303 303 308 303 303 296 290 297 301 304 302 300 300 296 295 292 293 290 292 293 292 295 296 296 294 295 295 295 295 295 296 295 295 294 294 294 296 294 295 295 295 297 298 299 302 301 302 304 306 303 300 292 295 294 290 289 287 288 289 291 292 294 290 291 292 293 294 297 298 295 290 287 292 290 293 294 291
302 303 303 303 304 304 304 305 304 303 303 303 305 304 302 299 292 292 290 300 298 297 297 293 295 291 295 287 292 290 291 293 294 296 294 294 294 294 294 293 293 294 294 295 294 294 293 295 295 294 294 295 297 298 300 302 304 304 302 302 298 294 289 289 291 290 290 292 291 292 292 292 291 292 293 293 294 296 297 290 290 296 293 287 296 297 294
302 303 303 303 304 304 304 305 304 303 302 303 308 298 300 292 294 297 297 292 289 292 291 294 291 292 294 291 294 291 290 291 289 293 294 294 296 294 293 293 293 292 294 296 291 293 294 295 290 294 295 295 297 296 298 298 299 302 300 303 299 295 289 290 291 288 290 291 292 293 292 292 291 291 293 293 294 296 294 294 294 299 290 288 296 298 294
302 302 303 303 303 304 304 305 304 303 301 304 308 298 298 298 296 296 299 293 294 293 292 295 293 291 293 291 292 290 290 289 290 290 292 293 292 294 286 290 292 293 294 295 292 293 290 287 294 293 294 295 296 294 295 298 300 300 300 300 303 297 290 292 292 289 289 290 291 293 291 291 292 292 292 294 294 294 295 295 296 298 296 298 297 295 292
302 302 302 303 303 304 304 304 304 303 301 307 302 300 297 294 296 292 298 297 295 294 293 292 291 288 291 288 290 290 290 289 290 291 291 288 291 294 291 290 292 293 293 293 291 290 292 292 288 293 294 294 296 295 295 294 298 299 299 299 302 302 288 293 293 290 289 291 292 292 291 291 291 292 293 293 294 294 295 295 295 297 296 295 293 290 288
301 302 302 303 303 304 304 304 304 302 302 304 301 298 300 300 301 299 294 290 291 293 292 290 289 286 287 286 288 290 290 288 291 290 292 290 289 290 290 292 293 294 293 292 291 292 292 293 293 293 293 291 293 293 294 294 295 296 298 300 300 301 290 295 294 288 287 290 290 289 291 291 289 290 292 292 293 290 293 290 293 295 292 294 292 289 287
301 302 302 303 303 304 304 304 304 303 302 304 301 296 303 303 301 301 298 288 290 290 291 291 290 283 285 286 285 286 287 288 292 288 292 293 292 292 291 293 295 292 292 290 291 293 293 294 295 294 295 295 295 295 294 294 294 295 296 298 296 299 294 291 291 288 287 290 290 289 289 289 284 286 291 290 291 291 292 293 294 294 297 293 290 291 294
301 301 302 303 303 304 304 304 304 303 304 300 300 298 301 298 297 298 297 288 288 290 290 288 288 286 290 289 288 290 287 289 290 287 286 292 292 294 294 293 293 290 289 291 295 296 296 296 296 297 295 295 295 295 295 295 295 293 294 296 296 299 297 292 296 287 289 290 292 293 288 280 283 288 288 291 290 290 290 288 289 291 293 291 295 292 293
301 301 302 302 303 303 304 304 304 304 303 304 304 301 301 302 301 298 292 287 286 291 288 285 286 288 289 290 290 289 288 288 288 291 288 291 292 294 293 293 293 286 292 297 298 297 297 296 296 296 296 296 296 297 296 295 295 296 296 294 295 294 296 293 296 290 288 291 291 286 280 283 288 290 292 292 292 292 289 288 289 290 292 293 292 292 292
301 301 301 302 303 303 303 304 304 304 303 305 304 299 303 303 299 295 293 289 285 288 286 287 289 289 289 290 291 291 291 291 292 292 292 291 292 293 293 291 291 291 296 295 297 297 293 293 293 293 293 294 295 296 295 295 295 296 296 296 295 291 292 293 291 292 291 287 287 278 281 286 290 291 293 295 294 293 291 288 289 291 293 294 292 292 292
301 301 301 302 302 303 303 304 304 304 304 304 303 302 303 303 301 296 292 289 286 290 291 289 289 289 289 289 290 291 292 292 293 294 291 293 292 291 293 294 294 296 297 297 296 296 292 292 288 290 291 292 293 292 293 295 294 295 295 295 295 295 295 293 288 291 284 287 287 284 288 288 288 287 290 292 290 291 291 285 286 291 294 294 292 291 291
300 301 301 301 302 303 304 304 304 304 304 304 305 304 302 302 302 299 298 294 286 288 290 284 287 289 289 289 290 290 290 291 291 291 292 295 293 293 294 295 297 297 299 297 293 294 290 289 286 285 288 287 283 286 292 290 292 294 295 295 296 295 290 292 288 285 288 286 285 284 283 281 285 289 292 293 293 293 294 291 286 292 294 295 293 291 291
300 300 301 301 302 303 303 304 304 304 304 304 306 304 303 303 304 302 297 293 291 283 286 291 291 290 289 289 290 289 287 288 289 291 291 292 291 293 295 297 299 299 297 294 293 290 288 285 284 284 283 285 288 286 285 289 288 291 295 294 294 295 295 291 289 286 286 284 282 282 280 281 286 289 291 293 292 294 295 290 286 291 294 295 294 292 292
300 300 300 301 302 302 303 303 304 304 304 304 303 303 302 305 302 302 296 294 291 285 291 292 294 294 290 289 291 289 290 287 289 286 286 287 289 291 293 296 299 298 294 294 292 289 287 286 289 287 287 287 285 283 288 287 286 287 291 293 292 291 291 290 287 284 285 285 283 281 284 281 287 289 290 291 294 292 292 282 283 290 294 294 294 293 293
300 300 300 301 301 302 302 303 304 304 304 304 304 302 302 306 306 306 298 294 289 287 291 293 292 289 287 289 288 290 292 291 291 292 289 290 290 290 290 293 291 296 297 290 290 287 285 285 283 283 283 288 288 288 281 286 283 283 285 287 287 286 286 288 284 286 284 282 284 286 284 287 289 289 291 292 294 292 283 280 286 292 294 294 295 294 294
299 300 300 300 301 301 302 303 304 304 304 304 305 306 303 304 306 308 299 294 291 286 291 294 295 292 293 295 293 292 291 291 291 288 287 288 289 292 292 291 293 288 293 289 290 285 284 284 289 287 284 286 288 282 288 283 282 287 287 285 286 285 285 285 287 285 284 285 282 283 285 285 290 291 290 291 289 281 282 287 294 294 293 294 294 293 294
299 299 300 300 301 301 302 303 303 304 304 304 304 301 301 306 306 305 298 292 292 290 292 292 293 290 293 291 290 289 291 291 291 289 287 284 292 293 292 287 292 293 290 292 284 287 285 282 285 288 285 286 287 289 285 284 287 285 286 287 285 284 283 283 283 285 284 284 282 280 278 284 290 290 288 290 284 283 289 292 293 294 293 293 292 293 293
299 299 299 300 300 301 302 302 303 304 304 304 302 303 300 306 307 307 305 301 293 288 289 295 295 293 294 293 294 293 292 289 289 288 290 290 293 292 283 281 287 289 285 287 283 283 285 284 286 285 288 287 287 288 283 283 285 289 288 287 287 289 284 284 284 286 281 282 280 279 283 287 292 291 285 286 288 291 293 292 290 293 293 293 292 293 294
299 299 299 299 300 301 301 302 303 303 304 303 302 306 299 303 307 305 304 305 294 290 292 296 297 297 296 297 297 297 295 294 295 295 292 289 293 291 290 291 289 290 290 292 289 287 290 288 290 286 284 286 290 285 287 283 281 286 290 289 281 289 287 288 284 288 284 282 283 287 290 291 293 293 291 292 293 294 293 293 292 292 292 295 293 293 294
299 299 299 299 300 300 301 302 302 303 303 303 303 303 299 302 303 307 306 295 298 298 299 297 297 297 298 297 298 298 299 299 300 299 296 293 289 291 290 290 289 293 294 294 289 289 289 289 285 289 286 287 285 285 286 286 283 286 283 288 288 290 291 293 289 284 288 290 291 291 291 291 292 293 294 293 294 295 295 294 292 293 294 295 294 294 294
299 299 299 299 299 300 301 302 302 303 303 303 302 302 300 301 303 305 300 297 294 290 293 297 293 289 292 292 295 298 298 297 299 300 301 300 288 288 292 292 293 295 293 294 292 290 289 288 288 290 283 287 288 285 282 281 283 287 286 285 288 290 290 290 285 288 286 280 290 289 289 291 292 291 293 294 295 294 294 293 293 293 294 293 294 294 293
298 299 299 299 299 300 301 301 302 302 303 303 303 303 305 302 303 302 301 290 290 291 285 288 290 294 296 297 298 297 297 298 300 301 301 298 295 289 287 292 296 293 290 294 296 294 290 286 288 287 282 288 289 283 287 285 283 288 283 285 287 286 293 288 287 287 285 284 288 290 292 292 293 293 290 290 290 291 291 292 292 292 293 293 293 293 292
299 298 299 299 299 300 301 301 302 302 302 302 302 302 299 298 304 306 304 299 297 292 287 286 290 297 298 296 294 295 297 298 297 298 299 296 296 298 295 297 296 299 297 295 296 290 288 287 288 287 285 284 292 286 285 287 287 289 287 285 289 289 291 284 287 286 288 289 290 290 291 291 291 293 295 293 292 291 292 293 293 293 293 293 293 294 293
299 298 298 299 299 300 300 301 302 302 302 302 302 304 302 302 304 301 299 298 294 287 289 286 291 293 295 294 296 298 297 297 298 297 296 296 295 297 297 294 293 294 294 293 292 290 289 288 287 285 288 286 290 288 289 287 288 285 285 288 291 289 285 288 287 284 283 284 287 290 285 284 289 291 292 293 294 294 293 293 293 293 293 293 292 293 294
299 299 298 299 299 300 300 301 301 301 301 302 302 303 305 302 303 303 303 301 298 289 288 288 289 293 296 293 296 297 297 297 297 296 295 295 296 296 294 293 293 292 291 290 287 287 287 285 285 287 287 289 288 285 289 289 289 287 287 288 290 287 288 288 285 284 283 289 291 292 291 291 292 293 293 294 295 294 293 293 293 293 293 293 293 292 293
299 299 299 299 299 300 301 301 301 301 301 301 303 302 303 303 305 305 304 305 304 297 292 292 294 293 288 291 297 296 297 299 298 297 296 294 295 295 294 293 292 292 292 289 288 288 286 286 288 287 286 290 287 284 286 282 282 281 286 289 290 292 293 291 290 290 290 292 292 292 291 289 292 294 294 294 295 294 293 293 293 294 294 294 293 293 292
299 299 299 299 299 300 300 301 301 301 300 303 301 300 295 297 303 303 304 304 302 299 290 287 285 287 295 295 295 295 295 297 297 297 296 294 294 294 293 294 293 293 292 288 287 285 286 287 287 291 292 295 287 285 282 284 282 285 289 290 290 291 291 292 292 291 288 293 293 293 292 292 293 294 294 294 295 294 293 293 293 293 293 293 293 292 293
299 299 299 299 299 300 301 301 302 301 301 303 300 290 289 288 299 305 302 304 304 300 291 290 287 291 290 295 296 293 294 295 295 295 295 295 294 294 294 295 294 293 289 288 288 286 287 285 286 288 291 291 288 285 283 282 281 284 288 290 290 290 291 291 294 293 293 293 294 294 293 292 294 292 292 294 294 294 294 294 294 293 294 293 292 293 292
299 299 299 299 300 300 301 301 301 302 305 302 298 295 296 297 300 303 304 303 303 300 291 287 285 286 287 290 295 295 295 295 296 296 294 296 294 295 295 294 291 294 290 288 288 287 285 286 286 287 288 291 288 285 285 283 280 282 289 289 291 291 292 292 292 292 293 293 292 290 290 290 292 290 290 294 294 294 294 294 294 294 292 293 294 293 293
300 300 300 300 300 301 301 301 301 303 304 302 299 299 300 299 301 302 303 304 303 297 296 289 285 286 286 289 294 295 295 296 294 295 292 295 293 294 291 294 294 293 292 289 286 285 287 286 287 285 289 292 285 284 284 282 283 287 289 290 291 291 292 293 293 293 293 293 293 288 287 289 290 292 293 294 294 294 293 293 293 293 293 292 291 291 291
300 300 300 301 301 301 301 302 301 299 299 302 300 300 303 301 303 301 302 303 299 298 294 288 284 284 285 292 289 292 295 291 291 292 288 294 294 294 289 291 292 287 290 288 288 287 288 288 286 286 289 286 286 283 279 284 287 288 288 289 291 292 292 292 292 292 292 292 293 293 292 292 293 294 293 293 293 294 293 293 292 291 291 291 290 290 291
300 300 300 300 300 300 301 301 302 301 299 300 300 303 303 301 300 301 302 299 290 288 288 287 288 284 284 285 285 289 295 293 288 291 288 291 295 291 291 287 288 285 287 293 287 286 285 286 289 284 283 287 283 279 281 285 286 288 288 289 291 291 291 290 290 292 293 293 293 293 293 293 292 291 291 292 292 292 291 291 291 291 290 290 290 290 290
300 300 300 300 300 301 302 302 302 299 297 297 299 301 301 301 301 304 304 303 298 288 286 286 287 285 285 282 282 287 295 290 292 293 291 290 291 293 291 288 284 286 291 287 284 288 285 290 286 282 286 281 280 283 285 288 287 288 289 289 291 291 291 291 291 292 293 293 293 293 293 292 291 291 292 291 291 292 291 291 291 290 290 289 289 290 290
299 298 298 300 303 302 298 296 299 300 298 300 300 300 300 301 303 303 301 299 301 300 291 287 285 286 287 285 287 289 293 285 291 289 291 288 286 288 288 286 283 286 286 285 285 284 287 291 285 281 281 280 283 288 288 289 288 288 289 290 291 292 292 292 292 293 292 293 293 292 292 291 291 291 291 291 291 292 291 289 290 289 289 289 290 289 290
299 299 303 301 298 292 291 294 298 300 299 299 299 300 299 297 291 292 292 291 295 295 291 292 286 289 291 289 284 292 292 287 291 286 287 289 286 286 288 285 284 284 280 282 284 290 286 285 282 281 282 287 289 288 289 290 291 291 292 292 292 293 293 293 293 292 290 289 289 290 290 290 290 291 290 290 291 290 289 291 291 291 290 290 290 290 290
299 300 299 298 295 290 291 297 301 298 300 301 300 293 290 292 290 287 287 289 290 288 290 290 287 291 289 288 289 293 291 287 286 288 284 290 285 282 286 281 285 284 281 281 283 289 281 282 282 281 281 285 286 288 290 292 292 293 294 294 293 293 294 293 293 291 290 289 290 290 290 288 289 289 291 291 291 291 291 291 290 291 291 290 290 290 290
299 295 291 292 291 294 299 302 298 299 299 292 292 291 286 289 286 283 289 286 285 288 290 285 290 291 291 288 288 287 294 291 285 285 286 287 291 283 285 284 285 282 277 278 281 288 281 277 280 280 280 285 286 289 289 290 291 293 293 292 293 294 294 294 293 294 293 292 292 292 292 292 292 292 291 291 291 289 289 290 291 291 291 291 290 289 289
298 298 296 291 296 298 299 301 302 298 293 288 287 287 286 283 286 286 286 283 283 284 290 289 291 290 291 291 290 287 294 295 293 292 289 284 290 289 284 280 285 279 278 278 284 284 282 280 280 279 281 285 287 288 289 290 291 292 293 293 293 294 294 294 294 294 293 292 292 292 293 293 293 293 293 293 292 289 288 289 291 291 291 291 290 290 291
296 296 297 299 298 298 298 297 293 290 288 289 284 280 283 284 287 286 286 282 282 286 288 288 286 288 288 290 290 291 291 295 291 288 287 283 287 284 281 283 283 278 276 282 285 283 281 276 277 279 284 287 288 289 289 289 290 291 293 293 293 294 294 294 294 294 293 292 292 292 293 293 293 293 293 293 292 291 290 290 291 291 291 291 291 291 291
297 297 298 296 295 292 292 288 288 288 281 280 280 278 282 280 282 282 283 286 288 288 288 294 291 293 292 294 291 293 290 294 289 288 286 283 287 286 282 281 279 275 280 286 283 280 277 277 277 281 287 287 289 289 290 290 291 292 293 294 295 295 295 294 293 292 293 293 293 293 293 293 293 294 293 293 292 291 291 291 291 291 292 292 292 291 290
298 297 294 291 289 288 289 279 287 284 280 282 280 276 279 279 281 284 282 284 287 287 290 287 288 288 285 291 289 288 289 291 290 289 287 287 284 281 280 277 279 284 287 281 280 277 278 280 281 284 287 288 289 289 290 291 291 291 292 293 294 294 295 294 294 293 292 293 294 294 294 293 293 293 294 293 293 291 291 291 292 291 292 292 291 291 291
292 289 288 287 285 286 284 276 287 283 277 279 282 282 282 280 282 284 284 287 289 287 291 291 290 289 286 291 291 289 288 286 291 285 282 285 281 282 279 279 283 283 279 277 279 279 279 278 284 286 286 287 289 289 290 291 291 291 291 293 293 294 293 293 293 293 292 293 293 293 293 293 293 292 293 293 293 293 292 291 292 292 292 292 291 291 291
288 287 286 281 276 282 283 279 280 279 283 285 284 286 286 286 286 286 290 291 289 290 289 289 290 289 287 290 285 285 288 288 285 285 285 285 279 277 283 286 284 278 277 278 275 275 277 281 284 285 287 288 288 288 290 291 292 292 292 291 292 293 294 293 293 293 293 293 293 293 293 293 293 292 292 293 293 293 293 292 293 292 292 292 291 290 290
288 288 287 286 281 283 285 280 281 284 286 287 288 288 288 289 289 290 291 291 290 291 291 292 290 290 286 287 287 287 288 287 283 285 286 280 279 282 285 280 275 277 274 273 275 277 280 283 285 286 288 289 287 289 290 290 291 291 291 292 292 293 294 294 294 293 294 294 294 293 293 293 293 293 293 293 294 294 293 293 293 293 292 292 292 291 291
285 288 287 280 278 283 281 284 289 288 289 290 289 290 290 290 289 289 291 291 292 291 290 290 287 289 287 290 289 284 285 286 282 283 285 282 284 280 278 277 276 278 279 276 277 282 283 285 286 286 289 290 288 289 290 290 291 291 292 292 292 293 293 293 293 294 294 294 294 294 294 294 294 293 293 293 293 294 294 293 293 294 293 293 292 292 291
289 287 284 283 284 285 285 287 288 286 288 289 289 290 289 289 288 290 291 292 291 290 291 289 287 287 284 287 285 284 281 285 279 280 284 281 277 274 274 273 274 274 280 282 282 284 285 287 288 288 290 290 290 290 290 291 291 292 292 292 293 293 293 293 294 294 295 295 295 294 294 294 294 294 293 293 292 293 295 295 294 294 293 292 292 291 291
288 286 287 286 285 286 288 289 287 286 288 288 288 288 289 289 289 290 292 291 292 291 290 289 289 285 285 284 280 282 281 284 282 282 280 277 278 279 277 274 276 276 280 284 284 286 288 289 290 289 289 290 290 290 290 291 291 292 293 294 294 294 293 294 294 294 294 295 295 295 295 294 294 293 293 293 294 294 295 294 294 293 293 293 293 292 291
290 288 288 291 286 285 286 282 283 283 285 286 287 288 289 288 289 290 293 291 291 289 287 284 286 284 283 281 280 276 279 285 281 279 279 278 281 279 277 276 279 283 284 286 287 288 289 290 289 289 289 290 290 291 292 293 293 293 294 294 294 294 294 294 294 294 294 295 295 291 294 294 294 294 294 295 294 294 294 293 293 293 293 293 293 292 291
287 285 286 288 290 290 290 289 288 288 288 289 289 290 291 288 291 291 293 291 289 285 284 287 285 282 280 277 280 283 285 282 279 280 277 281 283 279 279 281 283 285 286 286 287 288 289 289 289 288 290 290 290 292 292 293 293 293 294 294 294 294 293 294 294 294 294 294 294 295 295 295 295 295 295 294 294 293 292 292 293 294 293 293 293 294 293
Wind_Speed
22 23 24 26 27 27 26 26 26 23 22 8 6 5 2 5 5 3 8 2 5 5 4 1 3 7 1 3 3 3 5 7 3 5 2 6 5 5 6 7 6 8 8 4 6 6 6 4 7 5 7 6 6 4 2 3 2 2 4 4 1 2 3 9 11 4 4 6 4 2 1 2 6 7 4 4 11 11 10 10 4 8 6 8 6 6 4
22 23 24 28 27 27 26 26 24 22 18 7 6 4 3 3 4 3 9 5 5 5 2 1 2 3 1 3 0 2 2 2 4 7 2 4 1 4 4 4 5 4 1 5 7 1 5 3 5 4 5 5 4 4 0 1 2 3 4 2 4 3 2 6 7 8 8 7 7 6 3 4 6 4 2 3 2 2 2 1 1 7 10 12 9 10 3
22 23 25 28 28 27 27 27 25 22 18 9 4 4 2 2 2 2 5 9 6 2 4 4 3 1 1 2 1 2 4 4 5 3 3 3 3 3 2 3 3 4 2 4 4 3 5 2 2 2 2 5 4 5 1 6 4 4 6 6 2 1 3 3 8 10 10 10 10 9 8 8 3 2 1 1 4 6 7 8 7 10 6 11 8 3 7
22 23 24 27 27 27 27 27 26 24 20 13 4 3 3 4 2 3 3 5 6 8 5 6 4 2 1 0 5 3 3 5 4 3 5 5 3 5 3 1 1 4 4 6 6 4 3 5 0 5 5 6 4 4 3 3 5 8 14 7 5 2 2 5 6 6 5 7 8 6 5 3 4 5 3 2 3 5 7 8 8 10 6 9 7 3 12
22 23 24 26 28 27 27 26 27 26 22 12 4 2 3 1 4 3 4 1 6 6 8 8 8 4 7 0 5 3 2 1 4 7 1 6 4 3 6 3 4 1 4 4 3 2 2 4 2 3 2 3 4 3 4 9 9 9 7 7 6 3 1 3 8 8 6 6 7 8 6 2 5 2 3 3 2 3 5 8 8 9 6 10 7 15 13
22 23 23 26 27 27 25 26 27 27 24 16 5 3 4 1 2 2 3 5 6 5 6 10 6 9 5 4 4 6 6 7 4 3 6 1 6 2 5 7 4 1 2 2 3 2 3 4 2 2 4 6 7 7 5 5 7 7 7 7 6 9 5 5 5 4 6 7 9 8 6 7 6 7 5 5 4 2 2 6 8 9 6 5 10 12 13
22 23 23 25 27 26 26 26 27 27 27 17 4 1 4 4 3 4 4 1 6 6 5 6 7 8 7 5 10 10 10 10 8 5 4 4 7 8 3 8 9 6 2 2 4 4 4 2 5 4 3 3 3 6 7 6 3 6 8 8 3 5 3 9 9 11 9 8 8 9 8 6 7 8 8 7 8 8 8 8 9 8 9 11 13 15 13
22 22 23 23 26 27 26 26 26 27 28 14 7 8 4 4 3 4 3 5 5 6 4 5 4 6 11 4 10 8 9 10 9 9 9 4 8 9 7 8 8 10 11 8 7 6 7 4 2 5 5 3 5 4 5 2 1 2 5 5 3 5 5 11 11 9 8 8 7 7 7 5 5 6 5 7 10 11 9 8 7 8 11 12 14 13 11
20 21 22 23 25 26 26 25 25 27 25 6 8 6 6 3 2 3 3 5 6 3 4 3 5 5 9 7 7 8 11 10 8 8 8 10 8 9 9 8 4 9 11 12 11 7 5 4 3 5 5 3 5 4 3 5 1 1 5 2 4 4 7 8 8 6 7 6 6 6 6 7 6 4 3 5 3 5 6 5 5 4 6 9 11 8 7
20 20 21 22 24 24 24 25 25 25 21 5 5 7 2 1 1 3 3 4 4 4 6 5 3 6 3 2 3 3 9 9 7 2 7 9 11 10 9 9 4 8 11 13 11 10 8 6 6 5 3 3 2 1 3 5 5 2 1 1 5 6 9 7 7 7 5 9 6 4 6 5 5 5 4 5 6 6 5 6 6 9 4 5 2 5 10
19 20 20 21 23 24 24 25 24 23 13 8 6 5 4 4 2 1 3 3 4 6 4 7 8 3 3 4 2 2 3 8 10 6 4 8 11 12 10 11 6 7 10 10 10 8 8 7 6 3 3 2 4 4 5 7 8 7 5 2 2 2 9 7 8 6 4 9 8 7 5 8 7 3 2 1 4 2 3 3 5 6 7 4 6 12 13
19 19 20 21 21 23 24 23 21 20 14 5 4 3 4 4 4 3 1 3 4 5 7 7 6 5 7 6 3 3 4 5 5 4 4 7 8 10 11 11 10 4 9 10 8 7 3 3 3 3 2 5 6 6 8 9 8 6 7 6 3 5 7 6 5 6 5 8 8 6 9 7 5 3 4 3 4 5 10 8 6 4 5 9 14 15 14
19 19 20 21 21 22 23 23 22 21 18 7 5 5 4 2 4 4 3 4 5 4 6 7 6 8 6 7 5 4 3 1 2 2 3 5 7 9 9 7 8 7 12 13 12 6 5 3 4 4 5 5 3 1 3 6 6 6 7 8 5 1 5 2 2 2 4 5 7 7 3 6 3 5 4 4 6 9 12 9 7 4 6 10 13 12 12
18 19 19 20 21 21 23 23 22 21 19 12 4 5 4 4 4 2 1 2 5 5 2 3 8 9 10 9 7 3 1 2 2 2 4 5 6 8 8 7 7 8 8 8 8 6 3 3 3 4 6 7 5 6 4 6 8 6 5 5 7 5 2 3 3 1 5 5 8 5 5 6 6 4 6 5 4 7 4 2 4 4 6 9 12 13 13
18 19 19 20 21 21 22 22 22 22 19 16 4 4 6 6 5 4 2 1 7 7 8 5 6 7 7 8 8 3 3 4 2 2 4 2 5 6 7 9 8 8 7 7 3 1 1 1 4 5 4 5 6 4 5 2 4 7 4 2 2 5 3 1 2 2 3 5 8 5 4 7 5 4 5 4 4 6 4 4 5 4 4 9 13 14 14
18 18 18 19 20 20 21 22 21 21 19 19 3 4 5 5 4 3 3 2 1 5 8 6 6 5 5 6 7 8 5 3 4 3 0 5 8 7 7 9 7 8 7 4 2 2 1 3 2 4 4 1 2 2 1 3 3 4 4 2 2 4 2 1 3 1 4 6 8 8 8 1 4 6 3 4 3 5 3 4 5 7 8 11 12 14 13
18 18 18 19 19 20 21 21 22 21 18 18 6 5 6 8 5 5 4 7 8 8 5 6 4 4 3 6 6 7 7 4 7 4 2 5 8 9 8 10 4 6 9 4 3 1 1 1 3 3 3 3 1 1 0 1 1 3 5 3 4 2 1 3 3 1 2 6 7 8 1 3 2 3 1 4 4 3 5 6 6 12 10 9 10 11 10
17 17 18 18 19 19 20 20 21 20 19 19 7 5 4 6 5 6 3 5 7 8 8 9 9 7 8 7 7 6 3 4 2 1 2 2 5 8 9 9 8 6 10 2 3 2 3 3 2 1 1 4 2 3 2 3 3 3 3 4 2 2 1 2 7 7 2 1 6 0 4 3 3 3 5 4 3 5 5 5 7 11 12 9 9 9 7
15 16 17 18 18 19 19 20 20 20 20 20 9 2 5 7 7 6 2 4 5 6 6 6 6 9 3 3 4 3 3 4 7 3 4 1 4 9 6 2 4 5 8 3 3 3 2 3 1 2 1 4 1 2 2 2 3 3 3 1 3 3 1 0 1 6 7 5 7 7 3 3 4 4 5 5 2 4 1 5 5 11 10 9 9 10 8
15 15 16 17 17 18 19 19 20 19 19 19 11 4 2 6 5 7 5 7 5 8 6 8 8 10 9 10 8 8 6 5 8 6 6 6 8 9 5 2 5 7 4 4 4 3 2 4 3 2 0 1 3 2 4 4 4 5 3 2 3 4 3 1 1 1 0 2 5 4 7 4 4 4 2 5 1 4 4 7 10 9 10 10 9 8 8
14 14 15 16 16 17 18 18 19 19 19 19 12 2 4 5 5 5 5 4 4 4 6 3 3 9 8 10 9 8 9 9 9 7 6 7 9 6 3 4 7 5 5 4 4 4 3 2 3 2 2 3 3 3 1 3 5 5 5 4 5 6 4 1 2 5 3 5 5 2 5 2 2 4 1 4 7 6 6 8 9 8 7 7 7 8 7
14 14 14 15 16 17 18 18 18 18 19 19 16 4 3 4 3 3 3 4 4 5 5 3 3 4 6 5 4 5 7 7 8 7 6 4 7 8 4 3 7 5 4 4 1 2 1 2 0 0 1 2 1 1 1 3 1 4 4 4 2 8 4 5 2 4 4 4 5 4 3 5 6 8 11 11 9 6 6 7 7 7 6 5 7 7 7
14 13 13 13 15 15 17 16 17 17 18 17 11 4 5 3 3 5 5 4 3 2 2 3 3 3 4 4 3 4 4 3 4 5 7 6 3 6 7 6 6 4 3 4 5 4 4 4 3 3 2 4 3 2 2 2 1 1 2 6 5 3 3 2 3 5 7 8 7 6 7 8 9 9 9 10 9 8 7 7 7 7 7 6 6 6 6
13 13 13 12 13 15 15 15 15 16 16 15 9 4 3 4 4 4 2 2 0 4 3 2 1 4 6 7 5 2 1 3 5 5 4 5 3 2 4 6 4 1 3 5 2 5 3 3 3 3 2 3 5 1 0 2 3 3 2 4 4 4 1 1 3 6 3 4 5 8 8 7 8 9 8 9 8 8 7 8 7 7 7 7 7 7 6
13 12 12 11 12 13 13 14 14 15 15 15 9 2 2 1 4 5 3 1 1 1 2 3 5 3 4 2 2 1 5 4 3 3 4 5 8 6 6 5 4 5 5 4 1 4 1 1 2 1 2 3 6 1 2 2 4 3 1 3 3 6 1 4 4 2 1 7 8 7 6 5 6 6 6 6 7 7 7 7 6 6 6 6 6 5 5
12 12 11 10 11 12 13 13 13 13 14 15 11 5 6 6 5 4 2 2 1 1 1 3 5 2 1 2 5 6 5 4 2 3 4 5 4 5 3 2 1 1 2 2 4 2 1 0 1 2 1 3 4 2 2 6 3 1 3 4 5 4 4 1 2 2 7 9 8 6 5 4 4 4 4 5 5 6 6 6 7 7 7 6 5 4 3
11 11 10 10 10 11 12 12 12 12 12 11 5 4 4 5 6 8 5 4 2 2 1 3 3 3 2 5 4 2 3 3 1 1 2 3 3 1 1 2 2 2 2 1 2 1 0 1 2 4 4 4 3 4 2 2 0 1 1 4 1 4 2 3 3 4 5 5 8 9 5 5 7 5 5 5 4 4 5 5 4 4 4 3 3 4 4
11 10 10 9 10 11 11 11 11 10 10 9 4 2 3 4 5 5 5 5 4 2 1 3 3 5 0 3 4 3 4 3 2 2 2 3 3 3 3 3 3 4 2 2 2 0 1 1 5 1 0 2 3 2 2 3 2 2 2 3 1 3 2 4 2 1 1 5 9 6 3 5 5 7 6 5 3 3 3 3 3 2 2 1 1 1 1
10 10 9 9 9 10 11 11 10 8 9 8 2 3 2 3 3 5 5 4 4 3 0 2 2 4 1 4 3 3 4 3 3 2 2 2 4 4 4 5 5 3 2 1 1 1 2 3 2 3 3 4 4 1 3 2 1 1 3 4 1 3 4 5 5 4 7 6 8 4 2 4 6 6 5 4 3 1 2 2 2 1 2 1 1 2 3
11 10 10 8 9 10 10 9 9 6 8 3 3 3 2 4 3 6 6 5 5 4 1 2 2 2 1 1 1 3 4 4 4 4 4 4 4 4 4 2 3 3 3 2 2 2 2 1 2 3 2 2 3 1 1 1 1 2 4 4 5 4 4 4 5 3 5 4 6 6 6 6 5 5 4 3 2 1 1 1 1 0 1 1 2 1 1
11 11 9 8 9 9 9 8 7 5 6 2 3 1 1 1 4 4 8 5 4 4 1 2 1 2 2 2 1 5 6 5 4 4 4 3 3 3 2 2 2 3 1 1 0 3 1 1 1 3 2 3 3 2 1 0 1 3 5 4 5 5 4 5 4 5 5 6 6 5 5 5 3 3 4 3 2 1 1 1 3 3 6 2 2 2 2
13 12 10 9 9 9 8 7 5 5 3 2 2 3 4 5 5 8 7 5 4 4 2 1 2 2 1 2 2 2 4 2 2 2 3 3 1 2 2 3 2 3 3 2 1 1 2 2 1 1 0 3 3 2 2 1 1 1 5 5 4 4 4 4 5 5 5 5 5 4 3 3 1 2 2 3 2 1 1 1 2 1 5 4 1 1 1
15 13 11 9 8 7 7 5 3 5 2 4 3 4 7 1 7 8 3 4 4 1 2 1 0 1 1 4 1 2 5 4 1 2 3 4 3 2 1 1 1 2 2 3 1 1 1 1 0 1 3 1 2 1 3 0 1 3 2 5 6 4 4 4 5 5 5 4 1 1 1 1 2 2 1 1 1 1 2 3 1 1 3 2 4 3 3
14 11 9 7 6 5 3 0 4 4 2 3 3 2 4 11 6 2 4 3 1 0 2 1 2 2 2 2 3 4 5 4 4 4 2 4 3 3 2 1 1 0 3 3 2 1 2 2 1 1 2 1 1 2 2 0 2 3 4 3 5 5 5 6 5 5 5 4 2 3 4 3 2 2 2 2 2 1 1 1 2 3 2 2 2 2 2
14 11 7 4 2 1 5 8 5 4 1 2 2 3 6 10 8 6 4 3 2 1 0 0 1 1 3 2 1 4 3 4 3 4 3 3 2 4 2 1 1 1 3 2 2 1 1 1 3 3 1 2 1 1 2 1 3 3 3 4 6 6 6 6 6 5 5 4 3 3 2 2 3 3 3 3 2 2 3 2 2 4 3 2 2 3 3
13 9 3 2 6 6 4 5 1 2 3 1 3 6 10 9 4 1 1 2 3 1 0 1 1 1 0 2 2 2 2 1 1 1 2 2 3 1 2 2 0 3 1 2 1 1 1 3 2 2 2 2 2 3 1 1 1 1 2 4 6 7 7 7 5 6 5 4 3 3 3 3 4 2 2 2 3 3 3 3 3 3 3 3 3 3 4
12 5 0 4 5 4 1 2 2 3 3 4 8 12 12 8 2 3 2 2 2 2 2 0 2 3 3 3 2 2 3 0 2 1 2 3 3 1 2 1 2 2 2 2 1 1 3 0 3 4 2 3 1 2 3 3 3 4 3 1 3 5 4 3 6 7 7 6 6 5 4 4 4 3 3 4 3 4 4 5 4 4 4 4 4 4 4
8 6 4 3 3 2 1 2 2 3 7 8 7 4 4 4 1 2 1 1 1 3 1 2 1 3 0 3 0 3 4 1 1 3 1 2 2 1 0 1 3 2 2 1 2 2 2 2 2 3 3 2 3 1 2 2 3 2 4 3 3 4 6 6 8 7 5 5 5 5 5 5 5 4 5 5 5 5 4 5 4 4 3 4 4 5 5
6 2 2 0 2 1 1 3 3 6 5 2 3 2 1 0 1 1 1 0 1 1 1 1 3 1 1 2 3 3 4 3 2 2 3 4 3 1 1 3 2 2 1 2 3 2 3 2 1 2 3 2 3 3 3 1 2 2 3 2 2 4 6 7 7 5 4 2 3 1 2 3 4 4 5 5 5 5 5 5 4 4 4 4 4 4 4
1 1 1 0 1 2 2 1 1 3 3 1 1 1 1 0 1 2 0 1 3 2 1 2 3 2 4 4 3 2 1 3 4 3 4 1 1 4 1 1 1 2 2 3 2 1 3 3 0 2 3 1 1 4 3 3 2 2 1 1 4 5 6 6 6 3 2 1 1 1 1 3 4 4 4 5 5 5 6 4 4 4 3 3 2 5 4
3 1 0 1 3 2 2 4 2 2 1 1 1 0 0 1 2 1 1 1 1 2 2 2 2 3 2 1 2 2 3 2 0 2 3 2 2 2 2 1 1 3 2 2 2 1 2 2 2 3 2 2 3 3 4 3 2 2 1 1 3 4 7 7 7 5 4 3 2 2 2 2 3 3 3 4 5 3 3 3 5 4 3 4 3 4 2
4 4 3 2 2 3 3 2 1 1 1 0 0 2 2 1 1 1 1 1 2 0 3 2 1 3 3 3 3 3 2 1 1 1 2 1 1 2 2 0 0 2 2 2 1 2 2 3 3 3 1 1 2 2 3 4 3 2 2 2 2 4 7 7 7 5 4 3 2 1 1 2 3 3 3 3 4 5 6 6 5 4 4 3 3 4 3
3 4 2 1 2 1 1 1 2 1 1 1 1 2 0 1 1 1 2 1 0 1 3 1 0 1 1 3 3 0 3 1 2 0 2 1 1 1 2 1 2 3 1 1 2 2 3 4 4 3 2 2 2 2 3 3 4 2 0 2 3 4 6 8 7 6 5 3 3 2 2 3 4 4 4 4 4 5 5 5 4 3 3 3 3 3 3
1 2 2 1 1 1 1 1 0 0 2 0 0 2 2 3 3 2 2 2 0 1 3 3 2 4 1 2 4 1 2 3 1 2 1 0 2 1 1 3 2 1 0 3 2 4 4 3 4 4 3 2 0 1 3 3 4 2 2 3 3 4 5 5 5 6 6 4 3 3 3 3 4 4 5 5 5 5 5 5 4 3 3 4 3 3 1
2 1 0 1 1 0 0 2 0 0 1 1 0 1 1 2 2 0 2 2 2 2 1 1 2 2 4 2 2 1 1 2 1 2 1 1 3 1 2 3 2 2 3 4 3 3 2 3 1 2 1 1 1 2 2 3 3 4 2 3 5 6 6 7 7 7 6 6 6 5 4 4 4 4 6 6 5 5 4 5 4 4 3 3 2 3 1
1 0 1 1 1 2 1 2 1 1 1 1 1 1 1 3 1 3 4 1 2 1 2 2 3 3 4 0 2 2 1 2 3 1 1 2 4 4 1 1 1 4 3 4 4 4 4 3 0 0 1 1 0 1 2 2 3 2 1 2 5 8 8 8 8 8 7 6 6 6 5 5 4 4 5 6 6 6 6 5 4 4 3 3 3 2 1
1 0 0 0 1 1 1 0 1 1 1 2 2 2 3 3 3 3 2 1 2 2 3 2 3 3 5 2 2 2 1 1 3 1 2 4 3 1 0 3 4 3 4 4 5 4 3 1 0 0 1 1 0 1 3 3 3 3 3 2 2 3 6 9 10 10 9 8 8 7 6 6 5 5 5 5 6 6 6 6 5 5 4 4 3 2 1
1 1 1 1 2 1 2 1 2 3 1 2 3 2 2 1 2 2 2 1 2 2 3 4 3 1 2 2 2 3 3 2 4 3 1 3 1 3 2 3 4 3 3 4 5 2 2 1 1 1 2 2 2 4 5 4 4 4 4 3 3 3 4 6 9 10 10 10 10 9 8 7 7 6 6 6 6 7 7 7 6 6 5 4 3 3 2
1 0 1 1 1 1 1 3 3 3 3 3 1 1 2 2 1 2 1 0 2 3 3 4 2 2 3 0 3 2 3 1 3 1 1 2 2 2 2 4 4 6 4 4 5 3 2 2 1 1 3 4 5 6 6 6 6 5 5 5 4 4 4 5 6 8 9 9 9 9 9 8 7 7 6 6 6 6 7 7 7 6 5 5 4 3 3
1 1 1 1 2 1 2 2 3 2 4 3 2 2 1 2 2 2 1 3 2 4 2 2 1 3 2 1 3 2 3 2 2 1 3 5 4 3 4 6 5 5 5 2 3 3 3 5 5 5 6 7 7 8 7 7 6 6 6 5 5 5 5 5 5 6 7 8 10 10 9 8 8 8 7 7 6 5 5 6 7 7 6 5 4 4 4
0 1 1 1 2 1 5 4 4 4 3 3 2 1 1 3 3 2 2 3 3 4 3 3 1 1 2 2 1 3 1 0 3 5 4 5 2 3 6 7 6 4 4 4 4 4 6 6 4 4 5 9 9 9 8 7 7 6 6 6 7 6 6 6 6 5 6 7 8 9 9 9 8 8 7 6 6 5 6 6 7 7 7 6 5 5 4
1 2 1 1 1 1 2 1 1 2 2 2 3 2 1 4 2 1 1 4 3 4 3 0 1 2 1 3 2 2 2 3 4 3 6 5 3 6 6 6 6 5 6 6 6 5 6 5 6 4 8 9 8 7 8 7 7 7 7 7 6 7 7 6 5 5 5 6 7 8 9 9 8 7 6 7 7 7 7 6 7 8 8 7 6 5 5
Wind_Direction
351 348 348 351 349 347 343 343 343 346 343 341 4 295 320 35 57 58 1 24 234 268 256 155 209 224 249 21 239 265 246 261 289 265 166 229 211 252 231 243 240 239 261 271 267 261 262 259 231 181 191 97 48 2 34 146 141 277 99 80 43 295 241 215 232 215 142 146 117 119 352 292 231 225 287 244 231 225 244 249 226 213 199 215 211 231 108
352 350 351 352 349 347 344 343 344 346 355 327 303 285 28 27 41 71 26 8 216 275 286 220 203 218 176 246 187 135 339 283 245 228 65 306 193 253 247 218 238 304 334 258 258 232 256 202 262 191 178 122 90 75 340 201 75 346 55 318 111 213 194 273 215 220 198 191 191 190 135 227 233 234 171 327 333 243 28 325 266 244 224 230 228 232 136
354 352 351 353 350 348 345 344 343 346 349 341 290 330 355 266 165 60 46 24 29 28 359 303 292 265 283 274 173 175 179 40 13 350 57 22 356 266 215 342 359 249 248 268 258 256 274 292 79 16 162 95 126 85 98 187 165 104 75 26 98 56 359 310 233 220 217 215 209 213 198 197 108 63 53 355 259 199 201 230 220 245 206 227 240 219 86
355 352 350 353 353 350 348 344 343 346 350 342 266 327 279 11 359 2 71 41 66 79 62 22 317 293 311 344 9 332 170 119 52 345 77 15 52 25 325 211 283 260 219 219 228 212 191 258 155 207 161 133 105 39 89 164 150 147 142 135 63 79 59 36 41 3 8 8 11 27 328 180 195 117 70 12 325 315 272 251 238 235 194 225 235 161 133
355 352 349 353 355 352 350 346 344 345 346 348 301 351 354 50 20 346 5 297 54 53 41 29 9 14 320 342 349 20 26 169 103 6 216 36 12 46 28 5 231 220 236 217 175 212 182 175 145 56 95 73 98 104 107 101 95 122 123 125 99 100 85 48 71 50 27 7 18 13 347 75 55 73 53 12 343 303 268 229 250 255 238 236 113 131 129
355 352 350 354 355 354 353 351 347 345 342 339 291 21 351 42 42 343 3 335 23 3 31 22 33 5 337 61 5 36 51 47 37 20 48 25 19 294 58 43 41 305 247 239 194 109 118 86 72 109 84 136 142 140 114 111 110 174 151 177 195 177 166 186 133 84 69 41 45 32 49 51 65 64 53 45 21 17 280 6 356 321 247 264 127 129 116
356 353 352 354 357 357 356 354 350 347 340 330 315 34 69 57 83 56 292 10 51 35 12 6 38 32 28 78 33 39 39 48 36 9 335 54 44 19 70 40 38 56 114 241 108 4 183 100 62 27 28 53 185 149 143 98 115 172 154 175 189 144 131 160 157 125 107 86 62 49 53 66 73 61 65 75 77 74 68 58 37 36 75 97 113 100 98
356 354 352 355 359 1 0 357 355 348 341 324 55 31 358 44 325 86 84 71 64 42 32 357 1 50 8 51 26 26 25 38 26 32 20 36 29 6 55 43 42 54 62 68 74 45 28 39 60 39 345 132 16 70 18 36 138 185 153 170 169 251 144 170 154 144 129 119 114 91 70 34 30 25 47 80 92 91 86 81 69 76 76 88 97 97 104
358 355 354 354 1 3 4 2 0 352 341 43 37 59 19 37 4 324 319 65 20 39 42 42 42 38 15 29 6 15 17 12 352 59 36 41 25 6 4 352 7 66 66 61 58 27 5 340 350 333 332 17 16 337 82 348 300 137 156 191 177 244 146 186 178 167 156 148 132 88 59 24 356 342 11 20 26 77 40 47 1 3 119 117 118 110 119
1 357 356 355 0 4 5 7 4 358 335 20 17 45 24 235 172 266 292 68 342 29 49 40 99 55 35 25 341 1 360 352 344 109 41 38 32 10 350 345 320 56 40 29 6 341 331 324 323 331 323 303 324 354 11 3 358 358 78 333 208 175 158 181 189 215 196 154 118 104 90 37 335 247 148 108 83 85 87 58 39 28 3 159 176 86 118
1 359 357 357 0 5 7 8 9 4 358 27 7 31 7 358 357 254 267 74 47 25 42 46 50 54 330 51 104 126 351 13 21 42 13 1 16 7 9 15 8 59 31 347 330 312 301 296 292 275 241 221 133 115 103 73 44 27 7 265 236 235 192 197 190 231 150 147 147 144 186 213 225 67 112 56 136 143 70 58 10 22 12 40 70 118 126
1 360 358 358 358 5 8 9 8 10 0 2 319 12 10 312 267 282 310 78 69 51 56 49 23 18 10 13 30 64 59 35 24 9 17 344 358 10 16 22 14 45 350 325 317 307 282 230 244 203 201 159 150 128 89 70 65 45 32 5 321 221 210 221 190 226 165 145 147 198 221 226 57 213 158 137 93 102 100 90 54 62 81 108 113 126 137
1 0 358 357 357 1 7 8 8 8 3 345 351 18 12 320 310 20 43 70 65 33 66 62 49 35 19 15 27 43 42 120 158 240 219 343 360 23 28 11 1 340 326 319 317 285 217 176 174 172 171 166 183 181 73 64 56 56 41 23 1 202 212 177 199 190 108 178 187 213 215 68 110 97 128 122 141 130 114 88 79 94 137 136 129 128 125
0 0 358 356 357 359 4 7 6 5 2 350 357 14 357 335 329 16 10 62 75 57 328 73 38 28 21 21 354 346 8 78 108 44 45 17 7 14 11 6 345 313 310 307 282 281 230 213 205 196 196 209 198 216 118 80 42 21 32 38 22 347 235 217 185 165 212 210 204 228 91 154 120 125 138 167 155 184 201 176 107 113 144 148 133 129 128
0 359 358 356 356 357 0 4 6 4 360 350 325 14 19 4 345 357 1 54 92 65 33 44 7 359 24 26 8 355 26 11 319 86 54 43 23 24 2 352 340 330 315 294 321 302 259 254 223 209 186 202 221 196 148 158 58 31 16 40 79 16 323 322 245 200 267 228 217 212 209 233 129 85 106 23 3 359 328 103 115 136 142 145 139 135 135
2 359 358 357 356 356 358 2 4 4 2 346 330 22 40 3 303 296 346 349 303 54 35 21 359 344 11 33 25 23 7 358 356 284 145 51 21 10 11 353 345 328 328 279 319 322 337 247 235 238 237 224 43 71 120 99 119 75 46 76 126 146 179 60 270 230 202 241 240 231 236 79 48 102 121 44 4 299 307 247 161 146 148 148 144 139 143
3 360 358 358 357 356 357 0 1 2 360 357 349 25 32 4 343 331 38 72 75 82 44 10 315 305 22 40 32 32 10 13 353 356 11 14 2 353 360 351 340 359 356 311 360 302 184 172 242 244 98 0 288 55 163 42 90 106 100 96 103 107 189 199 191 303 246 239 236 242 39 83 114 90 1 17 336 16 262 225 186 147 148 143 144 141 143
2 0 358 357 356 356 357 358 360 358 358 354 343 24 31 3 352 310 42 77 88 79 46 24 27 49 44 23 35 20 346 16 1 249 307 13 2 7 347 359 359 43 348 29 351 77 57 30 58 336 43 47 325 297 271 30 64 4 15 357 22 59 12 246 232 221 160 208 243 91 124 92 82 39 14 16 306 272 208 220 108 143 137 141 138 129 128
360 359 358 357 355 357 357 357 359 357 357 355 336 231 47 3 351 322 62 75 81 84 64 39 42 55 17 255 42 24 48 342 348 358 353 348 32 339 314 335 302 357 359 35 26 48 46 93 46 357 32 103 65 55 351 64 23 12 333 218 150 85 61 154 224 234 235 230 236 244 69 48 4 21 8 354 304 187 236 62 127 124 123 118 115 108 97
358 357 357 356 355 357 357 356 357 357 357 358 344 58 24 6 6 0 24 81 76 84 62 45 25 51 37 37 33 28 27 38 12 16 22 8 352 328 236 172 47 352 18 355 71 10 24 58 37 336 350 88 60 339 104 94 51 22 25 8 343 20 296 223 145 56 53 207 236 227 239 90 349 12 102 12 18 59 106 123 111 113 108 107 97 90 86
357 356 354 354 355 356 357 357 357 356 356 354 349 314 80 30 7 2 343 351 85 90 86 60 26 53 35 46 34 29 26 26 14 7 21 27 349 306 38 24 351 356 18 356 24 42 355 41 52 53 23 339 100 229 103 113 103 65 3 34 51 8 275 194 89 359 268 216 219 263 25 60 15 295 202 88 75 98 103 113 113 107 110 105 100 79 72
357 355 354 354 354 356 356 357 357 357 355 353 340 288 84 43 20 355 318 314 51 73 71 46 1 30 47 38 31 12 14 15 24 355 346 28 29 39 69 48 27 14 23 321 239 134 129 51 223 342 151 130 204 12 46 238 143 95 64 319 204 27 25 353 334 51 5 28 60 94 101 72 71 78 93 103 103 99 101 95 105 106 88 83 91 88 78
358 354 353 353 354 355 354 355 357 357 355 354 345 22 40 9 15 341 286 92 93 109 166 155 198 151 142 100 58 20 14 1 330 347 356 336 60 38 34 16 47 3 355 352 359 360 21 330 63 348 69 16 8 118 169 324 90 80 71 37 54 62 25 11 68 85 92 71 75 102 115 97 83 80 87 97 91 81 92 96 93 74 67 63 79 82 77
358 355 351 352 350 353 354 354 356 356 355 354 345 355 52 26 354 317 172 78 124 117 104 63 177 56 25 35 31 37 29 27 7 344 315 306 354 98 91 44 340 257 45 33 340 335 16 352 29 319 69 38 304 251 177 113 47 54 116 121 84 61 172 238 112 143 198 89 120 106 107 113 95 89 84 70 61 60 61 71 70 75 73 72 65 64 65
354 353 351 350 348 353 356 356 356 355 356 354 337 206 246 43 18 340 301 203 177 245 83 88 63 36 25 7 299 22 43 349 305 320 334 18 25 21 37 30 6 356 23 4 295 264 263 286 172 172 84 47 311 73 0 264 126 313 195 116 171 107 253 111 107 134 328 125 136 122 99 111 125 121 105 93 82 74 67 71 76 81 81 85 89 96 83
354 349 347 347 350 352 354 356 355 356 354 351 339 26 46 33 350 298 269 45 22 327 129 88 99 109 270 199 49 24 340 330 351 356 29 36 15 4 32 161 160 240 325 352 292 332 9 41 15 15 34 99 308 311 65 12 57 15 318 68 17 77 234 128 202 124 102 120 144 139 142 141 138 139 85 91 112 117 122 122 130 130 119 117 111 86 88
350 347 338 340 344 349 349 351 353 351 351 347 337 30 40 54 21 27 19 344 276 154 181 109 104 110 45 67 49 351 18 340 311 306 70 37 11 24 300 342 10 173 227 130 37 317 54 41 17 56 26 66 330 39 12 169 211 158 147 98 155 222 179 110 185 150 170 169 167 168 169 172 163 163 144 122 106 116 118 132 119 115 105 102 102 97 75
343 342 336 330 337 340 344 345 350 348 343 330 295 11 26 44 40 27 13 359 326 344 77 135 155 96 319 98 28 22 17 0 346 344 1 36 34 20 25 37 17 21 17 314 163 114 348 59 80 84 107 64 268 119 8 74 266 245 226 119 310 300 69 222 234 296 190 118 144 170 13 47 113 138 136 132 137 143 151 135 118 87 68 63 56 106 138
341 337 332 329 328 333 337 340 342 350 339 312 261 268 173 66 45 41 16 342 307 304 358 73 121 192 199 63 346 41 55 22 29 4 42 62 54 40 46 32 33 31 70 51 55 33 53 73 14 12 33 14 312 137 192 218 211 235 64 80 69 32 11 17 26 59 70 104 138 90 38 97 109 115 129 143 148 176 107 84 70 36 73 92 14 354 330
337 337 331 324 322 324 328 335 337 344 328 285 232 246 204 141 56 26 10 347 349 313 252 189 177 84 120 222 83 37 36 39 46 54 56 60 45 31 25 25 55 19 22 19 332 50 48 54 89 94 87 289 292 352 281 232 212 112 97 103 85 102 67 46 18 351 100 102 115 92 93 93 92 108 102 96 102 351 334 342 19 187 154 349 281 306 325
336 334 327 319 316 316 319 328 333 334 296 241 238 236 243 152 82 45 4 339 336 300 313 277 79 116 159 95 319 8 7 23 35 58 56 36 43 33 56 262 87 320 302 132 49 60 274 95 100 105 136 34 327 265 278 229 260 141 150 135 122 116 100 72 57 64 87 112 114 104 93 92 115 132 144 132 131 178 159 127 118 34 12 294 288 293 277
330 328 319 315 310 310 314 317 326 283 275 278 320 9 23 14 344 328 323 305 300 256 255 202 158 197 107 145 89 14 343 357 300 163 87 337 39 37 78 358 45 27 356 360 63 210 59 38 319 34 358 62 283 307 278 268 156 81 147 162 145 115 102 117 107 98 94 108 134 137 130 107 152 315 48 104 108 135 280 7 327 114 159 244 213 265 321
328 322 315 310 303 303 309 308 287 291 53 64 58 115 108 21 309 295 298 288 249 350 314 281 63 97 213 79 131 84 346 238 143 326 92 18 22 301 118 72 142 132 75 265 173 16 65 289 287 204 92 265 268 271 281 270 127 82 158 178 166 148 127 114 124 121 119 112 27 283 217 112 137 141 103 102 126 105 172 232 202 242 267 228 228 210 214
328 325 313 308 301 302 310 2 132 129 157 206 159 96 37 7 330 11 305 284 333 94 267 288 163 195 104 153 195 78 334 343 59 336 63 69 2 277 42 206 100 231 36 330 70 226 162 244 281 50 170 173 288 285 261 69 110 158 150 177 181 164 154 150 153 154 141 126 90 56 58 64 81 109 165 174 150 126 35 300 236 241 222 241 265 249 266
333 328 321 301 298 115 147 162 164 210 199 124 74 61 1 354 336 300 298 310 253 159 192 138 293 169 150 183 176 86 349 287 27 19 352 68 16 2 344 279 151 244 87 308 238 292 314 53 11 262 192 86 239 257 252 228 160 175 183 175 175 178 177 184 183 170 159 143 146 132 137 160 166 185 174 192 216 220 232 229 218 246 262 259 278 282 282
336 339 348 118 144 170 165 209 239 185 170 55 41 10 347 326 296 293 343 5 337 327 226 97 260 200 182 172 121 88 296 188 39 251 53 293 171 80 318 315 196 91 337 285 301 240 241 62 265 255 95 246 233 239 314 39 291 263 211 209 180 197 198 208 177 171 162 160 159 152 176 204 222 211 218 227 235 211 226 238 233 229 258 281 277 281 275
337 342 184 182 192 200 123 59 60 16 30 337 318 316 299 290 204 226 213 212 113 328 329 252 229 77 355 47 81 93 283 82 5 276 57 358 10 28 324 286 41 25 233 211 206 309 74 349 279 275 244 257 257 43 356 319 300 292 270 250 197 202 205 191 156 160 155 161 174 189 202 220 226 232 229 238 225 216 222 232 241 240 237 252 271 279 300
322 262 230 205 204 193 156 126 55 20 319 286 273 252 179 218 183 150 164 157 46 283 102 275 68 70 161 278 124 49 279 89 294 326 105 49 275 116 319 308 47 309 324 348 57 17 302 235 261 296 296 296 352 10 360 338 315 291 283 265 236 205 198 178 169 168 167 174 198 207 216 226 238 229 235 230 220 213 219 240 237 243 255 266 275 293 298
277 221 191 307 269 60 29 55 29 326 276 230 235 251 141 14 221 148 61 53 212 138 46 302 71 4 293 242 104 68 346 330 293 306 324 68 320 40 353 322 108 280 285 238 124 278 260 187 205 267 258 189 204 68 18 353 300 290 291 275 237 209 193 185 186 187 203 267 1 51 259 271 267 244 229 230 215 213 216 223 232 230 241 265 279 283 295
66 106 27 319 51 41 352 38 279 278 221 207 151 281 115 29 283 102 236 170 116 73 270 101 38 20 4 349 325 116 63 290 321 347 338 61 111 317 38 275 66 283 281 305 80 328 297 309 94 277 276 250 109 56 1 9 326 5 335 235 203 196 189 184 180 175 193 139 136 146 245 269 279 279 247 218 206 204 217 217 223 244 260 277 338 307 298
28 44 259 31 29 346 343 320 282 230 237 173 148 67 289 104 48 13 270 130 78 75 1 0 203 174 119 274 279 339 97 277 19 316 287 323 64 270 274 325 45 284 273 296 87 263 278 284 285 284 313 355 356 17 350 354 15 43 83 161 170 176 176 170 166 165 175 162 168 183 214 240 243 244 242 225 213 185 168 221 225 222 240 265 256 266 304
353 345 7 315 306 285 275 216 235 172 95 295 41 66 20 42 191 157 337 356 82 172 116 327 53 8 44 357 16 318 113 27 312 279 293 292 99 304 334 342 203 278 306 55 331 260 276 289 298 297 317 61 39 346 354 342 5 355 76 109 153 174 170 169 169 168 185 180 167 206 187 214 209 207 201 195 180 174 188 204 217 222 240 263 288 284 286
267 248 236 247 223 199 270 179 57 319 73 71 105 88 103 121 26 21 92 102 124 270 71 213 65 252 142 245 203 204 7 41 286 274 279 353 122 234 288 298 234 261 329 46 269 297 290 290 287 300 4 27 17 351 16 4 341 312 134 139 153 177 178 178 182 180 182 189 180 197 183 190 201 192 187 186 183 182 205 223 234 252 256 281 296 302 286
152 201 207 211 206 74 260 94 21 122 82 11 319 125 164 139 146 175 192 105 220 149 47 333 21 311 340 118 320 355 187 180 211 282 278 91 277 289 239 257 268 45 79 263 276 286 310 315 294 305 352 15 339 25 32 21 20 353 217 172 157 168 190 194 191 180 178 185 196 193 193 198 198 184 190 199 202 208 209 215 215 231 271 286 283 285 285
235 194 182 155 49 31 260 74 277 92 86 106 306 106 155 125 127 189 69 82 286 16 359 290 297 297 304 45 240 216 313 327 112 274 308 308 288 271 260 300 354 285 284 294 284 289 286 277 199 185 201 241 143 56 4 13 11 12 337 202 187 189 193 204 205 207 199 199 197 192 201 203 208 206 203 206 209 219 221 219 205 216 237 267 283 280 230
257 15 189 156 1 311 328 115 142 154 111 182 167 134 94 68 45 87 75 48 292 309 307 343 289 271 285 52 308 332 276 292 297 300 321 283 292 286 342 340 266 277 273 264 263 287 303 305 316 29 32 333 39 302 308 355 358 346 297 249 219 209 210 215 219 219 218 213 206 205 209 211 217 222 214 212 212 212 214 222 222 238 263 278 278 285 254
169 212 275 327 104 103 257 171 139 52 108 150 80 56 43 58 34 17 46 322 283 7 311 288 295 324 302 303 278 211 213 278 291 305 285 275 263 284 209 281 271 246 258 270 273 283 289 303 278 346 308 329 39 247 265 305 326 335 338 309 287 254 226 224 225 227 224 222 219 217 220 222 225 222 226 221 215 214 215 221 224 228 246 268 292 286 277
272 16 281 189 147 172 172 116 84 121 85 54 87 66 60 17 245 172 123 257 332 298 289 305 284 233 229 140 229 287 310 308 293 264 258 290 281 269 272 252 255 262 256 268 276 298 286 298 314 320 299 301 298 297 290 279 285 305 320 326 309 268 249 240 235 232 228 223 221 222 223 221 221 222 220 227 226 218 215 216 219 222 233 247 255 243 248
351 302 288 78 83 158 123 126 187 165 142 142 139 208 184 229 287 350 43 212 256 288 331 301 314 307 288 349 292 291 274 174 270 275 183 227 231 239 240 259 261 272 257 248 274 292 300 296 232 233 279 300 300 291 287 284 282 285 298 311 316 312 288 265 252 243 234 228 225 223 222 219 219 221 225 223 228 227 218 216 217 218 227 241 247 239 225
250 165 193 194 172 160 117 158 234 213 157 168 194 219 196 263 288 9 55 266 298 292 258 229 224 274 301 311 279 275 275 258 259 265 257 248 247 252 249 266 255 255 290 292 275 281 284 280 281 271 280 287 295 299 297 290 273 272 286 297 299 296 292 285 271 252 236 228 225 221 219 213 214 216 223 226 227 231 218 212 215 221 227 230 242 235 230
139 293 327 351 302 147 159 194 203 210 214 221 246 262 266 285 326 324 89 299 300 278 264 268 270 267 273 253 267 271 278 33 258 243 246 263 250 238 244 257 274 287 289 294 289 285 287 287 281 285 303 302 298 296 290 284 284 287 293 294 295 296 290 281 275 262 246 234 229 226 220 213 214 213 212 217 220 217 218 211 215 223 225 224 226 236 227
243 220 198 142 208 253 237 330 308 264 265 280 260 249 276 275 292 5 81 273 266 263 270 266 260 247 225 250 237 259 294 263 252 264 264 250 237 256 254 263 285 295 302 300 295 292 288 285 290 301 301 301 305 301 297 295 295 293 292 290 291 292 290 283 274 260 244 232 222 220 218 214 207 203 199 203 209 213 222 224 213 216 223 226 224 224 230